Content
SEND FEEDBACK

Daily
Averages
Monthly
Summary
United States of America

MALDEN, MISSOURI


Home > North America > United States > Missouri
Elevation: 295 feet     Latitude: 36 36N     Longitude: 089 59W

WEATHER
 
SELECT A DAY
Number of Records: 212,682;   Date Range: 1/1/95 - 12/19/14
 
SHARE

PRINT THIS DATA

[ ← Previous Day ]
WEATHER ALMANAC - MARCH 6, 2014
[ Next Day → ]
[ °C ]   °F
Weather ElementAverageHighLow
Temperature34.3 °F46 °F (2:53 pm)27 °F (4:53 am)
Dewpoint21.1 °F23 °F (1:53 am)18 °F (4:53 am)
Humidity60.3 %81 % (1:53 am)39 % (2:53 pm)
Barometer30.16 in30.22 in (6:53 am)30.08 in (11:53 pm)
Wind Speed6.9 mph12.7 mph (7:53 am)
Weather ElementAverage
Visibility9 mi
Wind DirectionENE (60.9 °)

Weather ElementTotal
Precipitation---
Heating Degree Days28.5 (Base 65)
Averaged from 23 records on March 6, 2014
WEATHER CONDITIONS BREAKOUT
WIND DIRECTION BREAKOUT
WEATHER BY HOUR - MARCH 6, 2014
[ °C ]   °F
Local TimeTemperatureDewpointHumidityBarometerVisibilityWind DirectionWind SpeedGust SpeedPrecipitationEventsConditions
1:53 AM28.0 °F23.0 °F81 %30.20 in8.0 miNorth (350°)8.1 mphClear
2:53 AM28.9 °F21.0 °F72 %30.18 in10.0 miNorth (10°)8.1 mphClear
3:53 AM28.0 °F19.0 °F69 %30.19 in10.0 miNorth (10°)8.1 mphClear
4:53 AM27.0 °F18.0 °F69 %30.19 in9.0 miNNE (20°)11.5 mphClear
5:53 AM28.0 °F19.0 °F69 %30.20 in8.0 miNNE (20°)10.4 mphClear
6:53 AM30.0 °F19.9 °F66 %30.22 in6.0 miNNE (20°)10.4 mphHaze
7:53 AM30.9 °F19.9 °F64 %30.22 in8.0 miNNE (20°)12.7 mphClear
8:53 AM33.1 °F19.9 °F59 %30.22 in9.0 miNNE (30°)10.4 mphClear
9:53 AM34.0 °F19.9 °F56 %30.22 in10.0 miNNE (30°)12.7 mphClear
10:53 AM36.0 °F19.9 °F52 %30.22 in10.0 miNE (50°)6.9 mphClear
11:53 AM39.0 °F21.0 °F49 %30.19 in10.0 miENE (60°)6.9 mphClear
12:53 PM41.0 °F21.0 °F45 %30.16 in10.0 miEast (80°)6.9 mphClear
1:53 PM43.0 °F21.9 °F43 %30.12 in10.0 miNE (50°)6.9 mphClear
2:53 PM46.0 °F21.9 °F39 %30.10 in10.0 miNE (50°)6.9 mphClear
3:53 PM44.1 °F23.0 °F43 %30.10 in10.0 miENE (70°)5.8 mphClear
4:53 PM44.1 °F21.0 °F40 %30.10 in10.0 miENE (70°)9.2 mphClear
5:53 PM41.0 °F23.0 °F49 %30.12 in10.0 miEast (80°)6.9 mphClear
6:53 PM37.9 °F23.0 °F55 %30.12 in10.0 miEast (80°)5.8 mphClear
7:53 PM33.1 °F23.0 °F66 %30.11 in10.0 miCalmClear
8:53 PM32.0 °F23.0 °F69 %30.11 in9.0 miCalmClear
9:53 PM28.0 °F21.9 °F78 %30.10 in7.0 miCalmClear
10:53 PM28.0 °F21.9 °F78 %30.10 in7.0 miCalmClear
11:53 PM28.0 °F21.0 °F75 %30.08 in5.0 miWNW (300°)3.5 mphHaze
Hourly data recorded from KPOF, located miles away from Malden, Missouri







STORIES FROM OUR PARTNERS